Location: ???????
(48.4671°N, 33.0187°E)
Time: 01:48:12
(UTC+00:00)

Daily predictions for brighter satellites

Satellite Brightness Start Highest point End
(mag) Time Altitude Azimuth Time Altitude Azimuth Time Altitude Azimuth
MINOTAUR 4 R/B 4.2 00:03:55 45° SW 00:04:29 50° W 00:08:00 10° NNW
SL-19 R/B 4.2 00:00:27 10° NNE 00:06:17 81° WNW 00:09:26 27° SSW
Cosmos 2227 Rocket 2.9 00:00:48 10° NNW 00:06:22 55° ENE 00:11:54 10° SE
Cosmos 44 Rocket 3.8 00:03:08 10° NW 00:08:02 41° WSW 00:10:17 26° SSW
Cosmos 2297 Rocket 2.4 00:04:35 10° NNW 00:10:17 73° ENE 00:15:57 10° SE
Cosmos 1000 Rocket 4.5 00:07:31 22° S 00:11:48 89° WNW 00:18:07 10° N
CZ-2D R/B 2.5 00:07:15 10° N 00:12:33 53° WNW 00:15:24 26° SW
ARGOS Delta rocket 3.7 00:09:12 10° N 00:13:44 85° WNW 00:16:22 26° SSW
Cosmos 1842 4.4 00:13:20 25° W 00:14:16 28° WNW 00:17:40 10° NNW
Landsat 4 3.7 00:11:31 10° N 00:15:14 66° WNW 00:16:41 35° SW
BREEZE-M DEB (TANK) 4.4 00:16:49 13° SSE 00:16:52 13° SSE 00:18:16 10° SE
CBERS-1 4.4 00:13:23 10° NNE 00:18:27 62° ESE 00:22:23 17° S
CZ-3B R/B 3.8 00:09:44 15° SW 00:26:32 90° SSE 00:31:12 10° ENE
Spot 1 4.3 00:23:22 10° SSE 00:27:55 87° ENE 00:32:46 10° NNW
AQUA 4.2 00:26:06 10° N 00:30:42 49° WNW 00:33:25 23° SW
COSMOS 2455 2.8 00:24:44 10° NW 00:30:44 69° WSW 00:36:42 10° SSE
IDEFIX/ARIANE 42P 3.0 00:25:57 10° NNE 00:31:11 62° ESE 00:36:00 12° S
Cosmos 1953 2.2 00:31:05 10° NNW 00:35:03 77° W 00:38:26 14° S
In-Cosmos 22 4.2 00:31:18 19° SSW 00:35:27 75° WNW 00:41:02 10° N
Cosmos 371 Rocket 3.5 00:32:40 18° S 00:36:18 68° ESE 00:41:10 10° NNE
Cosmos 1975 Rocket 3.1 00:33:47 22° SSW 00:36:30 67° W 00:40:51 10° N
Timation 2 Rocket 3.8 00:32:13 10° NNW 00:38:14 83° WSW 00:44:15 10° SSE
Cosmos 1725 Rocket 4.0 00:32:04 10° N 00:38:23 82° W 00:44:36 10° S
Cosmos 2061 Rocket 4.0 00:32:10 10° NNW 00:38:27 75° W 00:44:47 10° S
ADEOS II 2.2 00:33:27 10° N 00:38:40 64° WNW 00:42:26 19° SSW
BREEZE-M DEB (TANK) 4.1 00:35:06 21° SW 00:38:41 59° SE 00:55:11 10° ENE
Resurs 1-4 Rocket 3.1 00:35:12 10° N 00:39:48 32° WNW 00:43:02 17° WSW
CZ-4B R/B 4.2 00:35:40 10° NNE 00:40:26 49° E 00:45:18 10° S
Cosmos 2219 3.2 00:38:45 10° NNW 00:44:27 74° WSW 00:50:09 10° SSE
Cosmos 1674 2.7 00:45:41 19° SSW 00:48:16 66° W 00:52:07 10° N
Cosmos 2251 Rocket 3.6 00:44:56 10° NNW 00:50:02 53° WSW 00:55:06 10° S
ADEOS Rocket 3.6 00:44:16 10° S 00:51:26 61° W 00:59:08 10° NNW
KORONAS-FOTON 3.9 00:49:10 18° SSW 00:51:54 61° WNW 00:55:49 10° N
Helios 1B rocket 4.2 00:50:20 10° NNW 00:53:15 19° WNW 00:55:32 13° W
ISS -2.8 00:49:58 10° WNW 00:53:15 46° N 00:56:32 10° ENE
IRS-1D 3.8 00:48:14 10° N 00:53:27 58° WNW 00:57:48 15° SW
Cosmos 2233 Rocket 4.0 00:49:07 10° N 00:55:23 89° E 01:01:34 10° S
Cosmos 1707 4.2 00:55:17 16° WSW 00:57:09 23° WNW 01:00:14 10° NNW
Cosmos 2016 Rocket 4.2 00:51:07 10° NNW 00:57:12 52° W 01:03:09 10° SSW
Cosmos 1300 3.2 01:00:05 10° N 01:03:52 62° ENE 01:07:39 10° SSE
Cosmos 1656 3.7 00:59:38 14° SW 01:04:17 75° WNW 01:09:49 10° NNE
CZ-4C R/B 4.1 01:00:28 10° SSW 01:04:32 39° W 01:08:34 10° NNW
IRS-1C 4.1 01:03:30 10° NNE 01:08:52 84° WNW 01:14:12 10° SSW
ATLAS CENTAUR R/B 3.6 01:07:59 10° WNW 01:10:16 15° NNW 01:12:37 10° N
Cosmos 2263 Rocket 4.0 01:07:45 10° NNW 01:12:59 37° NE 01:18:12 10° ESE
TSX-5 3.6 01:09:45 10° NW 01:12:59 51° WSW 01:16:46 10° SSE
Cosmos 1908 4.0 01:10:23 10° NNW 01:13:53 33° W 01:17:23 10° SSW
Lacrosse 4 Rocket 2.8 01:11:13 10° S 01:15:19 37° ESE 01:19:25 10° NE
Cosmos 1315 Rocket 4.4 01:13:22 10° NW 01:16:07 18° W 01:18:22 12° SW
Tianhe-1 2.7 01:14:59 14° SW 01:16:19 18° SSW 01:18:32 10° SSE
COSMOS 2441 4.4 01:16:55 10° NNE 01:21:51 78° WNW 01:26:44 10° SSW
Cosmos 1023 Rocket 4.5 01:19:01 10° NNW 01:24:14 72° WSW 01:29:27 10° SSE
USA 276 2.3 01:21:36 12° WSW 01:24:23 61° SSE 01:27:32 10° ENE
GP-B 3.8 01:20:52 10° NNW 01:24:59 38° W 01:29:05 10° SSW
Cosmos 1025 Rocket 3.6 01:21:15 10° SW 01:25:20 41° WNW 01:29:29 10° N
SL-16 R/B 4.3 01:23:49 10° WSW 01:26:32 13° W 01:29:17 10° WNW
CZ-2D R/B 3.6 01:25:58 10° NNE 01:30:20 84° WNW 01:34:46 10° SSW
Cosmos 1544 Rocket 4.5 01:26:37 10° NNW 01:30:24 29° W 01:34:13 10° SSW
SL-14 R/B 3.4 01:28:41 10° SSW 01:32:31 58° WNW 01:36:25 10° N
ARIANE 5 R/B 2.6 01:27:35 10° N 01:32:44 66° WNW 01:37:48 10° SSW
Cosmos 1626 2.8 01:29:33 10° SW 01:32:59 36° WNW 01:36:26 10° N
Iridium 2 4.1 01:31:53 10° SSW 01:35:32 45° W 01:39:14 10° N
Cosmos 1697 Rocket 2.7 01:30:13 10° SSW 01:35:50 81° WNW 01:41:30 10° NNE
Cosmos 1606 Rocket 4.0 01:33:26 10° N 01:37:48 67° E 01:42:10 10° SSE
Cosmos 1140 Rocket 3.6 01:34:05 10° NNW 01:39:11 56° WSW 01:44:17 10° S
SL-08 R/B 3.7 01:35:32 10° S 01:40:00 41° W 01:44:26 10° NNW
Cosmos 1726 Rocket 4.4 01:36:01 10° N 01:40:19 56° ENE 01:44:37 10° SSE
Cosmos 1190 Rocket 4.0 01:35:13 10° NNW 01:40:22 64° WSW 01:45:32 10° S
Cosmos 1980 Rocket 2.6 01:39:54 10° SSW 01:45:32 68° ESE 01:51:12 10° NNE
